Regional Weather Roundup
Issued by NWS

Home | Current Version | Previous Version | Graphics & Text | Print | Product List | Glossary On
Versions: 1 2 3 4 5 6 7 8 9 10 11 12 13 14 15 16 17 18 19 20 21 22 23 24 25 26 27 28 29 30 31 32 33 34 35 36 37 38 39 40 41 42 43 44 45 46 47 48 49 50
269
ASUS43 KMKX 192300
RWRWI

WISCONSIN REGIONAL WEATHER ROUNDUP
NATIONAL WEATHER SERVICE MILWAUKEE/SULLIVAN WI
500 PM CST SUN NOV 19 2017

NOTE: "FAIR" INDICATES FEW OR NO CLOUDS BELOW 12,000 FEET WITH NO
SIGNIFICANT WEATHER AND/OR OBSTRUCTIONS TO VISIBILITY.

WIZ001-002-006>008-014>016-023>028-200000-
NORTHWEST WISCONSIN

CITY           SKY/WX    TMP DP  RH WIND       PRES   REMARKS
SUPERIOR ARPT  CLOUDY    26  15  63 CALM      29.88S
ASHLAND        CLOUDY    24  16  71 CALM      29.88F
HAYWARD        CLOUDY    28  15  58 S5        29.87S WCI  23
SIREN          CLEAR     31  16  55 SW3       29.88S
CUMBERLAND     CLEAR     28  19  69 SW7       29.88S WCI  21
RICE LAKE      CLEAR     31  18  58 S3        29.89F
CHETEK         CLEAR     30  17  58 S3        29.89F
LADYSMITH      CLEAR     28  17  61 S5        29.90F WCI  23
EAU CLAIRE     NOT AVBL
MENOMONIE      CLEAR     28  18  66 SE5       29.91F WCI  22
NEW RICHMOND   CLEAR     31  19  61 CALM      29.89F
OSCEOLA        CLEAR     30  19  64 SE5       29.92F WCI  25
$$

WIZ003>005-009-010-017-018-200000-
NORTH CENTRAL WISCONSIN

CITY           SKY/WX    TMP DP  RH WIND       PRES   REMARKS
MANITOWISH WTR CLOUDY    20  18  93 SW3       29.84F
ARBOR VITAE    PTCLDY    23  17  79 CALM      29.85F
WOODRUFF       PTCLDY    23  17  79 CALM      29.85F
RHINELANDER    CLOUDY   N/A N/A N/A W3        29.87S
EAGLE RIVER    LGT SNOW  21  17  83 W8        29.84F WCI  12
LAND O LAKES   CLOUDY    21  17  84 W3        29.85F
PHILLIPS       CLOUDY    26  14  61 CALM      29.86F
TOMAHAWK       CLOUDY    25  11  55 W5        29.88F WCI  20
MEDFORD        MOCLDY    26  14  61 SW8       29.89S WCI  17
MERRILL        CLOUDY    28  13  54 W3        29.89F
$$

WIZ029-030-035-036-043>047-200000-
CENTRAL WISCONSIN

CITY           SKY/WX    TMP DP  RH WIND       PRES   REMARKS
WAUSAU         CLOUDY    28  15  58 W6        29.90S WCI  22
MOSINEE        MOCLDY    27  16  63 W9        29.92S WCI  17
MARSHFIELD     PTCLDY    27  15  61 W8        29.91S WCI  19
STEVENS POINT  PTCLDY    28  13  52 W6        29.93F WCI  22
WAUPACA        CLEAR     31  14  48 SW7       29.95S WCI  25
WAUTOMA        CLEAR     28  15  58 SW5       29.97S WCI  23
WISC RAPIDS    CLEAR     29  15  56 SW8       29.95S WCI  21
CAMP DOUGLAS   CLEAR    N/A N/A N/A S5        29.97F
$$

WIZ011>013-019>022-031-037>040-048>050-200000-
NORTHEAST WISCONSIN

CITY           SKY/WX    TMP DP  RH WIND       PRES   REMARKS
ANTIGO         CLOUDY    26  10  52 W6        29.88S WCI  19
SHAWANO        PTCLDY    31  11  44 SW3       29.93R
OCONTO         PTCLDY    27  11  49 W6        29.92F WCI  21
STURGEON BAY   CLOUDY    29  13  51 W10       29.92F WCI  20
GREEN BAY      CLOUDY    30  15  53 W8        29.95S WCI  22
MANITOWOC      CLOUDY    30  15  53 W8        29.96S WCI  22
APPLETON       MOCLDY    28   7  40 W8        29.93F WCI  20
CLINTONVILLE   CLOUDY    30  10  43 W7        29.94R WCI  23
OSHKOSH        PTCLDY    29  13  51 SW3       29.96S
$$

WIZ032>034-041-042-053>061-200000-
SOUTHWEST WISCONSIN

CITY           SKY/WX    TMP DP  RH WIND       PRES   REMARKS
LA CROSSE      CLEAR     36  21  54 S8        29.96F WCI  30
SPARTA         CLEAR     32  18  55 CALM      29.97S
VIROQUA        CLEAR     31  22  68 SW9       29.96F WCI  23
BOSCOBEL       CLEAR     32  18  56 SW7       30.02F WCI  26
PRAIRIE DU CHI CLEAR     34  18  52 CALM      30.02F
PLATTEVILLE    CLEAR     31  22  68 SW7       30.03F WCI  25
$$

WIZ056-057-062-063-064-067-068-200000-
SOUTH CENTRAL WISCONSIN

CITY           SKY/WX    TMP DP  RH WIND       PRES   REMARKS
REEDSBURG      CLEAR     31  16  53 SW5       29.98S WCI  26
BARABOO/DELLS  CLEAR     30  16  55 W7        29.97S WCI  23
LONE ROCK      CLEAR     31  19  61 SW7       30.01S WCI  24
MINERAL POINT  CLEAR     32  21  64 SW8       30.00F WCI  25
MADISON        PTCLDY    31  16  54 W3        30.00F
MIDDLETON      CLEAR     32  17  53 SW5       30.00F WCI  27
WATERTOWN      PTCLDY    30  17  59 SW5       29.98F WCI  25
MONROE         CLEAR     32  19  59 SW14      30.01S WCI  22
JANESVILLE     CLEAR     32  19  59 W12       30.02F WCI  23
$$

WIZ051-052-058>065-066-070>072-200000-
SOUTHEAST WISCONSIN

CITY           SKY/WX    TMP DP  RH WIND       PRES   REMARKS
MILWAUKEE      PTCLDY    32  13  45 W7        30.01S WCI  26
WAUKESHA       CLEAR     28  12  50 W12       30.00F WCI  18
MILWAUKEE/TIMM CLEAR     28  10  47 W8        30.01S WCI  20
RACINE         PTCLDY    31  15  52 W7        30.03S WCI  24
BURLINGTON     PTCLDY    32  23  69 W7        30.01F WCI  25
KENOSHA        CLOUDY    31  16  54 W9        30.02S WCI  23
FOND DU LAC    PTCLDY    28  12  51 SW3       29.97S
SHEBOYGAN      CLOUDY    29  15  56 W8        29.97S WCI  21
WEST BEND      PTCLDY    28  12  50 W5        29.97F WCI  23
JUNEAU         CLEAR     29  16  56 W6        29.98F WCI  23
$$

LSZ147-162-200000-
LAKE SUPERIOR

STATION/POSITION TIME  TEMP    WIND        PRES    WAVE
                       AIR SEA DIR/SP/G            HT/PER
                 (UTC) (F)     (DEG/KT/KT) (MB)    (FT/S)
DEVILS ISLAND    2200   27     240/ 17/ 21 1012.5F
SAXON HARBOR     2240   25     190/  4/  6 1011.9F
$$

LMZ867-665-643>646-200000-
LAKE MICHIGAN

STATION/POSITION TIME  TEMP    WIND        PRES    WAVE
                       AIR SEA DIR/SP/G            HT/PER
                 (UTC) (F)     (DEG/KT/KT) (MB)    (FT/S)
N MID LAKE BUOY  2150   28 48  270/ 16/ 21 1013.7R   3/ 4
NORTHPORT PIER   2240   29     280/  4/  8 1012.5F
KEWAUNEE LAKESHO 2230   30     260/  7/  9 1013.0F
SHEBOYGAN LAKESH 2200   31     260/ 12/ 14 1015.5R
PORT WASHINGTON  2240   31     270/  6/  8 1016.6S
MILWAUKEE LAKESH 2230   32     270/  8/  9   N/A
S MID LAKE BUOY  2150   34 49  310/ 16/ 19 1016.7R   4/ 7
KENOSHA   LAKESH 2200   33     280/  9/ 15 1016.9
$$

TC  - TEMPERATURE IN CELSIUS
VSB - VISIBILITY IN STATUTE MILES
WCI - WIND CHILL INDEX
HX  - HEAT INDEX





USA.gov is the U.S. government's official web portal to all federal, state and local government web resources and services.